Regional Weather Roundup
Issued by NWS Goodland, KS

Home | Current Version | Previous Version | Graphics & Text | Print | Product List | Glossary On
Versions: 1 2 3 4 5 6 7 8 9 10 11 12 13 14 15 16 17 18 19 20 21 22 23 24 25 26 27 28 29 30 31 32 33 34 35 36 37 38 39 40 41 42 43 44 45 46 47 48 49 50
000
ASUS43 KGLD 271559
RWRGLD

GOODLAND FORECAST AREA HOURLY WEATHER ROUNDUP
NATIONAL WEATHER SERVICE GOODLAND KS
1000 AM MDT FRI MAY 27 2016

...OFFICIAL OBSERVATIONS...

CITY           SKY/WX    TMP DP  RH WIND       PRES   REMARKS
GOODLAND KS    CLOUDY    57  52  83 E8        29.74R
HILL CITY KS   CLOUDY    59  57  93 NE9       29.73S FOG
IMPERIAL NEB   CLOUDY    57  53  86 NE12      29.78S
MCCOOK NEB     CLOUDY    59  54  83 NE10      29.76S
AKRON CO       CLOUDY    51  48  89 N24G31    29.81R
BURLINGTON CO  PTSUNNY   58  48  69 NE13      29.75S
LIMON CO       RAIN      45  44  97 NW22G30   29.81R FOG
$$

...UNOFFICIAL OBSERVATIONS...

CITY           SKY/WX    TMP DP  RH WIND       PRES   REMARKS
GOVE KS          N/A     60  32  34 MISG        N/A
LENORA KS        N/A     56  32  40 MISG        N/A
TRIBUNE KS     MOSUNNY   61  48  63 CALM      29.75R
KIT CARSON CO    N/A     57  46  66 CALM        N/A
YUMA CO          N/A     56  52  88 E12         N/A
$$



USA.gov is the U.S. government's official web portal to all federal, state and local government web resources and services.